{"data":{"norad_id":66898,"epoch":"2026-09-20T13:12:07.734528Z","epoch_age_seconds":79689,"freshness":"FRESH","line1":"1 66898U 25283W   26263.55008952  .00016025  00000+0  48452-3 0  9999","line2":"2 66898  53.1582 195.1251 0001444  86.5591 273.5577 15.34392127 45736","mean_motion":15.34392127,"eccentricity":0.0001444,"inclination_deg":53.1582,"raan_deg":195.1251,"arg_perigee_deg":86.5591,"mean_anomaly_deg":273.5577,"bstar":0.00048452,"rev_number":4573,"period_min":93.848239616261,"perigee_km":461.73881981263,"apogee_km":463.71446123201,"semimajor_km":6840.8636405223,"source":"CELESTRAK","updated_at":"2026-09-21T09:00:36.053567Z"}}